Weather History for Malaga, Spain

Change the Weather History Date:

Tuesday, February 21, 2012

  Actual Average Record
Temperature  
Mean Temperature 54 °F -  
Max Temperature 61 °F 64 °F 73 °F (2002)
Min Temperature 46 °F 47 °F 39 °F (2005)
Degree Days  
Heating Degree Days 12    
Growing Degree Days 4 (Base 50)    
Moisture  
Dew Point 46 °F    
Average Humidity 78    
Maximum Humidity 88    
Minimum Humidity 54    
Precipitation  
Precipitation 0.00 in 0.08 in - ()
Sea Level Pressure  
Sea Level Pressure 30.29 in    
Wind  
Wind Speed 5 mph ()    
Max Wind Speed 10 mph    
Max Gust Speed -    
Visibility 4.9 miles    
Events      
Averages and records for this station are not official NWS values.
T = Trace of Precipitation, MM = Missing Value Source: Averaged Metar Reports

Daily Weather History Graph

Daily Weather History Graph

Search for Another Location

Airport:

Trip Planner

Search our weather history database for the weather conditions in past years. The results will help you decide how hot, cold, wet, or windy it might be!

Date:

Astronomy

Feb. 21, 2012 Rise Set
Actual Time 7:59 AM CET 7:03 PM CET
Civil Twilight 7:33 AM CET 7:30 PM CET
Nautical Twilight 7:03 AM CET 8:00 PM CET
Astronomical Twilight 6:33 AM CET 8:30 PM CET
Moon 7:21 AM CET (2/21) 6:54 PM CET (2/21)
Length of Visible Light 11h 56m
Length of Day
11h 04m
Waning Crescent, 0% of the Moon is Illuminated
Feb 21
Waning Crescent
Feb 21
New
Mar 1
First Quarter
Mar 8
Full
Mar 15
Last Quarter

Hourly Weather History & Observations

Time (CET) Temp. Windchill Dew Point Humidity Pressure Visibility Wind Dir Wind Speed Gust Speed Precip Events Conditions
12:00 AM 51.8 °F - 48.2 °F 88% 30.27 in 2.8 mi WNW 2.3 mph - N/A   Mostly Cloudy
12:30 AM 51.8 °F - 48.2 °F 88% 30.27 in 2.8 mi NW 1.2 mph - N/A   Mostly Cloudy
1:00 AM 50.0 °F - 46.4 °F 87% 30.27 in 2.8 mi NW 1.2 mph - N/A   Mostly Cloudy
1:30 AM 50.0 °F - 46.4 °F 87% 30.27 in 2.8 mi WNW 3.5 mph - N/A   Mostly Cloudy
2:00 AM 51.8 °F - 46.4 °F 82% 30.27 in 2.8 mi WNW 5.8 mph - N/A   Mostly Cloudy
2:30 AM 50.0 °F - 44.6 °F 82% 30.27 in 2.8 mi WNW 3.5 mph - N/A   Mostly Cloudy
3:00 AM 50.0 °F - 44.6 °F 82% 30.27 in 2.8 mi WNW 3.5 mph - N/A   Mostly Cloudy
3:30 AM 50.0 °F - 46.4 °F 87% 30.27 in 2.8 mi WNW 3.5 mph - N/A   Mostly Cloudy
4:00 AM 48.2 °F - 44.6 °F 87% 30.27 in 2.8 mi WNW 5.8 mph - N/A   Mostly Cloudy
4:30 AM 48.2 °F - 44.6 °F 87% 30.27 in 2.8 mi NW 3.5 mph - N/A   Mostly Cloudy
5:00 AM 48.2 °F - 44.6 °F 87% 30.27 in 3.1 mi WNW 6.9 mph - N/A   Scattered Clouds
5:30 AM 46.4 °F 43.5 °F 42.8 °F 87% 30.27 in 3.7 mi WNW 5.8 mph - N/A   Scattered Clouds
6:00 AM 46.4 °F 43.5 °F 42.8 °F 87% 30.27 in 3.7 mi WNW 5.8 mph - N/A   Scattered Clouds
6:30 AM 46.4 °F 41.9 °F 42.8 °F 87% 30.27 in 3.7 mi WNW 9.2 mph - N/A   Scattered Clouds
7:00 AM 47 °F - 43 °F 79% 30.28 in 4 mi WNW 8.1 mph - -   Mist
7:00 AM 46.4 °F 42.4 °F 42.8 °F 87% 30.27 in 3.7 mi WNW 8.1 mph - N/A   Scattered Clouds
7:30 AM 46.4 °F 42.9 °F 42.8 °F 87% 30.27 in 4.3 mi WNW 6.9 mph - N/A   Scattered Clouds
8:00 AM 46.4 °F 41.5 °F 42.8 °F 87% 30.27 in 4.3 mi WNW 10.4 mph - N/A   Scattered Clouds
8:30 AM 46.4 °F 41.5 °F 42.8 °F 87% 30.30 in 4.3 mi WNW 10.4 mph - N/A   Scattered Clouds
9:00 AM 46.4 °F 42.9 °F 42.8 °F 87% 30.30 in 4.3 mi WNW 6.9 mph - N/A   Scattered Clouds
9:30 AM 48.2 °F - 42.8 °F 82% 30.30 in 4.3 mi WNW 6.9 mph - N/A   Scattered Clouds
10:00 AM 50.0 °F - 44.6 °F 82% 30.33 in 3.1 mi WNW 9.2 mph - N/A   Scattered Clouds
10:30 AM 51.8 °F - 44.6 °F 76% 30.33 in 3.1 mi NW 4.6 mph - N/A   Scattered Clouds
11:00 AM 55.4 °F - 46.4 °F 72% 30.33 in 3.7 mi NW 3.5 mph - N/A   Scattered Clouds
11:30 AM 57.2 °F - 46.4 °F 67% 30.33 in 3.7 mi Variable 2.3 mph - N/A   Scattered Clouds
12:00 PM 59.0 °F - 46.4 °F 63% 30.33 in 3.7 mi East 5.8 mph - N/A   Scattered Clouds
12:30 PM 57.2 °F - 44.6 °F 63% 30.33 in 5.0 mi ESE 8.1 mph - N/A   Scattered Clouds
1:00 PM 58 °F - 46 °F 54% 30.34 in 7 mi SE 9.2 mph - -   Partly Cloudy
1:00 PM 57.2 °F - 44.6 °F 63% 30.33 in 6.2 mi SE 9.2 mph - N/A   Scattered Clouds
1:30 PM 59.0 °F - 48.2 °F 67% 30.33 in 6.2 mi SE 8.1 mph - N/A   Scattered Clouds
2:00 PM 59.0 °F - 48.2 °F 67% 30.30 in 6.2 mi SE 10.4 mph - N/A   Scattered Clouds
2:30 PM 59.0 °F - 48.2 °F 67% 30.30 in 6.2 mi SE 9.2 mph - N/A   Scattered Clouds
3:00 PM 59.0 °F - 48.2 °F 67% 30.30 in 6.2 mi SE 10.4 mph - N/A   Scattered Clouds
3:30 PM 59.0 °F - 48.2 °F 67% 30.27 in 6.2 mi SE 10.4 mph - N/A   Scattered Clouds
4:00 PM 59.0 °F - 48.2 °F 67% 30.27 in 6.2 mi SE 9.2 mph - N/A   Scattered Clouds
4:30 PM 57.2 °F - 48.2 °F 72% 30.27 in 6.2 mi SE 10.4 mph - N/A   Scattered Clouds
5:00 PM 57.2 °F - 48.2 °F 72% 30.27 in 6.2 mi SSE 9.2 mph - N/A   Scattered Clouds
5:30 PM 57.2 °F - 46.4 °F 67% 30.27 in 6.2 mi SE 9.2 mph - N/A   Scattered Clouds
6:00 PM 57.2 °F - 48.2 °F 72% 30.27 in 6.2 mi SE 8.1 mph - N/A   Scattered Clouds
6:30 PM 57.2 °F - 46.4 °F 67% 30.27 in 6.2 mi SE 5.8 mph - N/A   Scattered Clouds
7:00 PM 57 °F - 48 °F 64% 30.31 in 12 mi SE 3.5 mph - -   Partly Cloudy
7:00 PM 55.4 °F - 48.2 °F 77% 30.30 in 6.2 mi SE 3.5 mph - N/A   Scattered Clouds
7:30 PM 53.6 °F - 48.2 °F 82% 30.30 in 6.2 mi SE 2.3 mph - N/A   Scattered Clouds
8:00 PM 53.6 °F - 48.2 °F 82% 30.30 in 6.2 mi ESE 1.2 mph - N/A   Scattered Clouds
8:30 PM 53.6 °F - 48.2 °F 82% 30.30 in 6.2 mi SE 1.2 mph - N/A   Scattered Clouds
9:00 PM 51.8 °F - 46.4 °F 82% 30.33 in 6.2 mi Calm Calm - N/A   Scattered Clouds
9:30 PM 51.8 °F - 46.4 °F 82% 30.33 in 6.2 mi Calm Calm - N/A   Scattered Clouds
10:00 PM 51.8 °F - 46.4 °F 82% 30.33 in 6.2 mi SSW 1.2 mph - N/A   Scattered Clouds
10:30 PM 48.2 °F - 42.8 °F 82% 30.33 in 6.2 mi WNW 1.2 mph - N/A   Partly Cloudy
11:00 PM 48.2 °F - 44.6 °F 87% 30.33 in 6.2 mi WNW 4.6 mph - N/A   Scattered Clouds
11:30 PM 50.0 °F - 44.6 °F 82% 30.33 in 6.2 mi West 4.6 mph - N/A   Scattered Clouds